STARLINK-11289, 60991

Orbit data source: Space-Track

STARLINK-11289, 60991 is a payload satellite owned by SpaceX/Seattle (US) in LEO that was launched on Thu, 05 Sep 2024 UTC via an FALCON 9 launch vehicle from the Air Force Eastern Test Range (AFETR). Payload-class satellites include a variety of spacecraft equipped with specific instruments for various scientific and technological missions. These include communications satellites like Starlink; space stations such as the ISS; scientific satellites like the Hubble; Earth observation satellites from companies like Planet Labs, Umbra, and HawkEye 360; GPS; miniature CubeSats for education and research; and military/defense satellites.

Loading next visibility...
Identifier
60991, 2024-158B
Orbit
LEO
Country
Flag of USUS
Related business
Manufacturer
SpaceX/Seattle
Mission
Operational Commercial Communications
Bus & Motor
STARLINK V2MD, Unknown motor
Mass
960 kg wet, ~910 kg dry
Launch date (UTC)
2024-09-05 (1 year ago)
Launch vehicle
FALCON 9
Launch site
Air Force Eastern Test Range (AFETR)
Object type
Payload
Rocket body
Debris
Shape & HBR
Box + 2 Pan, 14.5 m
Radar Cross Section
36.964 m², Large (>1 m²)

Expand to show TLE details & history
Last TLE update: 18 hours ago

TLE from 18 hours ago
0 STARLINK-11289
1 60991U 24158B   25258.19242564 -.00003108  00000-0 -20796-4 0  9992
2 60991  53.1583  66.1979 0000467  70.2145 289.8923 15.69725847 60030
Epoch: 2025-09-15T04:37Z
TLE epoch observation values (Epoch: 2025-09-15T04:37:05.575Z)
Latitude
-0.00003°
Longitude
2.52404°
Altitude
360.489 km
Speed
7.694 km/s
True Right ascension
04h 24m 47s
True Declination
0° 00' 00"
Sunlit
Object was in daylight at epoch
Visualization orbit readout
Latitude
Unknown
Longitude
Unknown
Altitude
Unknown
Speed
Unknown
Apparent Right ascension
Unknown
Apparent Declination
Unknown
Sunlit
N/A
Visualization observer readout
Local Sidereal Time
15:21:38
Azimuth
Unknown
Elevation
Unknown
Doppler factor
Unknown
Orbital elements
Apogee altitude
360.257 km
Perigee altitude
359.628 km
Semi-major axis
6,738.079 km
Eccentricity
0.00005
Inclination
53.1583°
RAAN
66.1979°
Arg. of periapsis
70.2145°
True anomaly
289.88727°
Mean anomaly
289.8923°
Eccentric anomaly
289.88978°
Mean motion
3.92409 °/min
Orbital period
91.74 mins
BSTAR
-0.000020796
Loading maneuver chart data...
Computing Atmospheric mass density...
Loading historical data...
Loading historical data...
Loading historical data...
Loading historical data...
Loading historical data...
Loading historical data...
Loading historical data...

Documentation

Showing up to 5 results
|